Year,Month,Day,Hour,Minute,Value (Times are PST for temperature in C)
2011,03,23,00,00,4.20
2011,03,23,00,01,4.20
2011,03,23,00,02,4.20
2011,03,23,00,03,4.20
2011,03,23,00,04,4.20
2011,03,23,00,05,4.20
2011,03,23,00,06,4.20
2011,03,23,00,07,4.20
2011,03,23,00,08,4.20
2011,03,23,00,09,4.20
2011,03,23,00,10,4.20
2011,03,23,00,11,4.20
2011,03,23,00,12,4.20
2011,03,23,00,13,4.20
2011,03,23,00,14,4.20
2011,03,23,00,15,4.20
2011,03,23,00,16,4.30
2011,03,23,00,17,4.30
2011,03,23,00,18,4.30
2011,03,23,00,19,4.30
2011,03,23,00,20,4.30
2011,03,23,00,21,4.30
2011,03,23,00,22,4.30
2011,03,23,00,23,4.30
2011,03,23,00,24,4.30
2011,03,23,00,25,4.20
2011,03,23,00,26,4.20
2011,03,23,00,27,4.20
2011,03,23,00,28,4.20
2011,03,23,00,29,4.20
2011,03,23,00,30,4.20
2011,03,23,00,31,4.20
2011,03,23,00,32,4.20
2011,03,23,00,33,4.20
2011,03,23,00,34,4.20
2011,03,23,00,35,4.20
2011,03,23,00,36,4.20
2011,03,23,00,37,4.20
2011,03,23,00,38,4.20
2011,03,23,00,39,4.20
2011,03,23,00,40,4.20
2011,03,23,00,41,4.20
2011,03,23,00,42,4.20
2011,03,23,00,43,4.20
2011,03,23,08,21,4.00
2011,03,23,08,22,4.00
2011,03,23,08,23,4.00
2011,03,23,08,24,4.10
2011,03,23,08,25,4.10
2011,03,23,08,26,4.10
2011,03,23,08,27,4.20
2011,03,23,08,28,4.20
2011,03,23,08,29,4.20
2011,03,23,08,30,4.30
2011,03,23,08,31,4.30
2011,03,23,08,32,4.30
2011,03,23,08,33,4.30
2011,03,23,08,34,4.40
2011,03,23,08,35,4.40
2011,03,23,08,36,4.40
2011,03,23,08,37,4.40
2011,03,23,08,38,4.50
2011,03,23,08,39,4.50
2011,03,23,08,40,4.50
2011,03,23,08,41,4.60
2011,03,23,08,42,4.60
2011,03,23,08,43,4.60
2011,03,23,08,44,4.70
2011,03,23,08,45,4.70
2011,03,23,08,46,4.70
2011,03,23,08,47,4.80
2011,03,23,08,48,4.80
2011,03,23,08,49,4.80
2011,03,23,08,50,4.80
2011,03,23,08,51,4.90
2011,03,23,08,52,4.90
2011,03,23,08,53,4.90
2011,03,23,08,54,4.90
2011,03,23,08,55,4.90
2011,03,23,08,56,4.90
2011,03,23,08,57,4.90
2011,03,23,08,58,5.00
2011,03,23,08,59,5.00
2011,03,23,09,00,5.10
2011,03,23,09,01,5.10
2011,03,23,09,02,5.10
2011,03,23,09,03,5.10
2011,03,23,09,04,5.20
2011,03,23,09,05,5.20
2011,03,23,09,06,5.20
2011,03,23,09,07,5.20
2011,03,23,09,08,5.20
2011,03,23,09,09,5.30
2011,03,23,09,10,5.30
2011,03,23,09,11,5.30
2011,03,23,09,12,5.30
2011,03,23,09,13,5.40
2011,03,23,09,14,5.40
2011,03,23,09,15,5.40
2011,03,23,09,16,5.40
2011,03,23,09,17,5.50
2011,03,23,09,18,5.50
2011,03,23,09,19,5.50
2011,03,23,09,20,5.60
2011,03,23,09,21,5.60
2011,03,23,09,22,5.60
2011,03,23,09,23,5.70
2011,03,23,09,24,5.70
2011,03,23,09,25,5.70
2011,03,23,09,26,5.70
2011,03,23,09,27,5.70
2011,03,23,09,28,5.70
2011,03,23,09,29,5.70
2011,03,23,09,30,5.70
2011,03,23,09,31,5.70
2011,03,23,09,32,5.70
2011,03,23,09,33,5.70
2011,03,23,09,34,5.70
2011,03,23,09,35,5.70
2011,03,23,09,36,5.70
2011,03,23,09,37,5.70
2011,03,23,09,38,5.70
2011,03,23,09,39,5.70
2011,03,23,09,40,5.70
2011,03,23,09,41,5.70
2011,03,23,09,42,5.70
2011,03,23,09,43,5.70
2011,03,23,09,44,5.70
2011,03,23,09,45,5.80
2011,03,23,09,46,5.80
2011,03,23,09,47,5.80
2011,03,23,09,48,5.80
2011,03,23,09,49,5.80
2011,03,23,09,50,5.80
2011,03,23,09,51,5.80
2011,03,23,09,52,5.90
2011,03,23,09,53,5.90
2011,03,23,09,54,5.90
2011,03,23,09,55,5.90
2011,03,23,09,56,6.00
2011,03,23,09,57,6.00
2011,03,23,09,58,6.00
2011,03,23,09,59,6.10
2011,03,23,10,00,6.10
2011,03,23,10,01,6.20
2011,03,23,10,02,6.20
2011,03,23,10,03,6.20
2011,03,23,10,04,6.20
2011,03,23,10,05,6.20
2011,03,23,10,06,6.20
2011,03,23,10,07,6.30
2011,03,23,10,08,6.30
2011,03,23,10,09,6.30
2011,03,23,10,10,6.30
2011,03,23,10,11,6.30
2011,03,23,10,12,6.20
2011,03,23,10,13,6.20
2011,03,23,10,14,6.20
2011,03,23,10,15,6.20
2011,03,23,10,16,6.20
2011,03,23,10,17,6.10
2011,03,23,10,18,6.10
2011,03,23,10,19,6.20
2011,03,23,10,20,6.20
2011,03,23,10,21,6.20
2011,03,23,10,22,6.20
2011,03,23,10,23,6.20
2011,03,23,10,24,6.20
2011,03,23,10,25,6.20
2011,03,23,10,26,6.20
2011,03,23,10,27,6.20
2011,03,23,10,28,6.20
2011,03,23,10,29,6.30
2011,03,23,10,30,6.30
2011,03,23,10,31,6.30
2011,03,23,10,32,6.30
2011,03,23,10,33,6.40
2011,03,23,10,34,6.40
2011,03,23,10,35,6.40
2011,03,23,10,36,6.40
2011,03,23,10,37,6.50
2011,03,23,10,38,6.50
2011,03,23,10,39,6.50
2011,03,23,10,40,6.60
2011,03,23,10,41,6.60
2011,03,23,10,42,6.60
2011,03,23,10,43,6.60
2011,03,23,10,44,6.60
2011,03,23,10,45,6.70
2011,03,23,10,46,6.70
2011,03,23,10,47,6.70
2011,03,23,10,48,6.70
2011,03,23,10,49,6.70
2011,03,23,10,50,6.70
2011,03,23,10,51,6.70
2011,03,23,10,52,6.70
2011,03,23,10,53,6.80
2011,03,23,10,54,6.80
2011,03,23,10,55,6.80
2011,03,23,10,56,6.80
2011,03,23,10,57,6.80
2011,03,23,10,58,6.80
2011,03,23,10,59,6.80
2011,03,23,11,00,6.80
2011,03,23,11,01,6.90
2011,03,23,11,02,6.90
2011,03,23,11,03,7.00
2011,03,23,11,04,7.00
2011,03,23,11,05,7.10
2011,03,23,11,06,7.20
2011,03,23,11,07,7.20
2011,03,23,11,08,7.20
2011,03,23,11,09,7.20
2011,03,23,11,10,7.20
2011,03,23,11,11,7.20
2011,03,23,11,12,7.20
2011,03,23,11,13,7.20
2011,03,23,11,14,7.20
2011,03,23,11,15,7.20
2011,03,23,11,16,7.20
2011,03,23,11,17,7.20
2011,03,23,11,18,7.20
2011,03,23,11,19,7.20
2011,03,23,11,20,7.20
2011,03,23,11,21,7.20
2011,03,23,11,22,7.20
2011,03,23,11,23,7.20
2011,03,23,11,24,7.20
2011,03,23,11,25,7.20
2011,03,23,11,26,7.30
2011,03,23,11,27,7.30
2011,03,23,11,28,7.30
2011,03,23,11,29,7.30
2011,03,23,11,30,7.30
2011,03,23,11,31,7.40
2011,03,23,11,32,7.40
2011,03,23,11,33,7.40
2011,03,23,11,34,7.40
2011,03,23,11,35,7.50
2011,03,23,11,36,7.50
2011,03,23,11,37,7.50
2011,03,23,11,38,7.50
2011,03,23,11,39,7.60
2011,03,23,11,40,7.60
2011,03,23,11,41,7.60
2011,03,23,11,42,7.60
2011,03,23,11,43,7.60
2011,03,23,11,44,7.60
2011,03,23,11,45,7.70
2011,03,23,11,46,7.70
2011,03,23,11,47,7.70
2011,03,23,11,48,7.70
2011,03,23,11,49,7.70
2011,03,23,11,50,7.70
2011,03,23,11,51,7.80
2011,03,23,11,52,7.80
2011,03,23,11,53,7.80
2011,03,23,11,54,7.90
2011,03,23,11,55,7.90
2011,03,23,11,56,7.90
2011,03,23,11,57,7.90
2011,03,23,11,58,8.00
2011,03,23,11,59,8.00
2011,03,23,12,00,8.00
2011,03,23,12,01,8.10
2011,03,23,12,02,8.10
2011,03,23,12,03,8.20
2011,03,23,12,04,8.20
2011,03,23,12,05,8.20
2011,03,23,12,06,8.30
2011,03,23,12,07,8.30
2011,03,23,12,08,8.40
2011,03,23,12,09,8.40
2011,03,23,12,10,8.40
2011,03,23,12,11,8.40
2011,03,23,12,12,8.50
2011,03,23,12,13,8.50
2011,03,23,12,14,8.50
2011,03,23,12,15,8.50
2011,03,23,12,16,8.40
2011,03,23,12,17,8.40
2011,03,23,12,18,8.40
2011,03,23,12,19,8.30
2011,03,23,12,20,8.30
2011,03,23,12,21,8.30
2011,03,23,12,22,8.30
2011,03,23,12,23,8.30
2011,03,23,12,24,8.30
2011,03,23,12,25,8.30
2011,03,23,12,26,8.40
2011,03,23,12,27,8.40
2011,03,23,12,28,8.50
2011,03,23,12,29,8.60
2011,03,23,12,30,8.70
2011,03,23,12,31,8.70
2011,03,23,12,32,8.80
2011,03,23,12,33,8.90
2011,03,23,12,34,8.90
2011,03,23,12,35,8.90
2011,03,23,12,36,8.90
2011,03,23,12,37,8.80
2011,03,23,12,38,8.80
2011,03,23,12,39,8.80
2011,03,23,12,40,8.80
2011,03,23,12,41,8.70
2011,03,23,12,42,8.70
2011,03,23,12,43,8.70
2011,03,23,12,44,8.70
2011,03,23,12,45,8.70
2011,03,23,12,46,8.70
2011,03,23,12,47,8.70
2011,03,23,12,48,8.80
2011,03,23,12,49,8.80
2011,03,23,12,50,8.80
2011,03,23,12,51,8.80
2011,03,23,12,52,8.90
2011,03,23,12,53,8.90
2011,03,23,12,54,9.00
2011,03,23,12,55,9.00
2011,03,23,12,56,9.10
2011,03,23,12,57,9.10
2011,03,23,12,58,9.20
2011,03,23,12,59,9.20
2011,03,23,13,00,9.20
2011,03,23,13,01,9.20
2011,03,23,13,02,9.20
2011,03,23,13,03,9.20
2011,03,23,13,04,9.20
2011,03,23,13,05,9.30
2011,03,23,13,06,9.30
2011,03,23,13,07,9.30
2011,03,23,13,08,9.30
2011,03,23,13,09,9.30
2011,03,23,13,10,9.40
2011,03,23,13,11,9.40
2011,03,23,13,12,9.40
2011,03,23,13,13,9.40
2011,03,23,13,14,9.40
2011,03,23,13,15,9.30
2011,03,23,13,16,9.30
2011,03,23,13,17,9.30
2011,03,23,13,18,9.30
2011,03,23,13,19,9.40
2011,03,23,13,20,9.40
2011,03,23,13,21,9.40
2011,03,23,13,22,9.40
2011,03,23,13,23,9.50
2011,03,23,13,24,9.50
2011,03,23,13,25,9.50
2011,03,23,13,26,9.50
2011,03,23,13,27,9.50
2011,03,23,13,28,9.60
2011,03,23,13,29,9.60
2011,03,23,13,30,9.60
2011,03,23,13,31,9.70
2011,03,23,13,32,9.70
2011,03,23,13,33,9.70
2011,03,23,13,34,9.70
2011,03,23,13,35,9.80
2011,03,23,13,36,9.80
2011,03,23,13,37,9.90
2011,03,23,13,38,9.90
2011,03,23,13,39,9.90
2011,03,23,13,40,9.90
2011,03,23,13,41,9.90
2011,03,23,13,42,9.90
2011,03,23,13,43,9.90
2011,03,23,13,44,9.90
2011,03,23,13,45,9.90
2011,03,23,13,46,10.00
2011,03,23,13,47,10.00
2011,03,23,13,48,10.00
2011,03,23,13,49,10.10
2011,03,23,13,50,10.10
2011,03,23,13,51,10.10
2011,03,23,13,52,10.20
2011,03,23,13,53,10.20
2011,03,23,13,54,10.20
2011,03,23,13,55,10.20
2011,03,23,13,56,10.20
2011,03,23,13,57,10.30
2011,03,23,13,58,10.30
2011,03,23,13,59,10.30
2011,03,23,14,00,10.30
2011,03,23,14,01,10.30
2011,03,23,14,02,10.30
2011,03,23,14,03,10.30
2011,03,23,14,04,10.30
2011,03,23,14,05,10.30
2011,03,23,14,06,10.30
2011,03,23,14,07,10.30
2011,03,23,14,08,10.30
2011,03,23,14,09,10.30
2011,03,23,14,10,10.30
2011,03,23,14,11,10.20
2011,03,23,14,12,10.20
2011,03,23,14,13,10.20
2011,03,23,14,14,10.20
2011,03,23,14,15,10.20
2011,03,23,14,16,10.20
2011,03,23,14,17,10.20
2011,03,23,14,18,10.20
2011,03,23,14,19,10.20
2011,03,23,14,20,10.10
2011,03,23,14,21,10.10
2011,03,23,14,22,10.10
2011,03,23,14,23,10.10
2011,03,23,14,24,10.10
2011,03,23,14,25,10.10
2011,03,23,14,26,10.10
2011,03,23,14,27,10.10
2011,03,23,14,28,10.10
2011,03,23,14,29,10.10
2011,03,23,14,30,10.10
2011,03,23,14,31,10.10
2011,03,23,14,32,10.20
2011,03,23,14,33,10.20
2011,03,23,14,34,10.20
2011,03,23,14,35,10.20
2011,03,23,14,36,10.20
2011,03,23,14,37,10.20
2011,03,23,14,38,10.20
2011,03,23,14,39,10.20
2011,03,23,14,40,10.20
2011,03,23,14,41,10.20
2011,03,23,14,42,10.20
2011,03,23,14,43,10.20
2011,03,23,14,44,10.20
2011,03,23,14,45,10.20
2011,03,23,14,46,10.20
2011,03,23,14,47,10.20
2011,03,23,14,48,10.20
2011,03,23,14,49,10.10
2011,03,23,14,50,10.10
2011,03,23,14,51,10.10
2011,03,23,14,52,10.00
2011,03,23,14,53,10.00
2011,03,23,14,54,10.00
2011,03,23,14,55,10.00
2011,03,23,14,56,10.10
2011,03,23,14,57,10.10
2011,03,23,14,58,10.10
2011,03,23,14,59,10.10
2011,03,23,15,00,10.20
2011,03,23,15,01,10.20
2011,03,23,15,02,10.20
2011,03,23,15,03,10.20
2011,03,23,15,04,10.20
2011,03,23,15,05,10.20
2011,03,23,15,06,10.20
2011,03,23,15,07,10.20
2011,03,23,15,08,10.20
2011,03,23,15,09,10.20
2011,03,23,15,10,10.20
2011,03,23,15,11,10.30
2011,03,23,15,12,10.30
2011,03,23,15,13,10.30
2011,03,23,15,14,10.30
2011,03,23,15,15,10.40
2011,03,23,15,16,10.40
2011,03,23,15,17,10.40
2011,03,23,15,18,10.40
2011,03,23,15,19,10.40
2011,03,23,15,20,10.40
2011,03,23,15,21,10.40
2011,03,23,15,22,10.40
2011,03,23,15,23,10.50
2011,03,23,15,24,10.50
2011,03,23,15,25,10.50
2011,03,23,15,26,10.50
2011,03,23,15,27,10.50
2011,03,23,15,28,10.60
2011,03,23,15,29,10.60
2011,03,23,15,30,10.60
2011,03,23,15,31,10.60
2011,03,23,15,32,10.70
2011,03,23,15,33,10.70
2011,03,23,15,34,10.70
2011,03,23,15,35,10.70
2011,03,23,15,36,10.70
2011,03,23,15,37,10.70
2011,03,23,15,38,10.80
2011,03,23,15,39,10.70
2011,03,23,15,40,10.70
2011,03,23,15,41,10.70
2011,03,23,15,42,10.70
2011,03,23,15,43,10.70
2011,03,23,15,44,10.70
2011,03,23,15,45,10.70
2011,03,23,15,46,10.70
2011,03,23,15,47,10.70
2011,03,23,15,48,10.70
2011,03,23,15,49,10.70
2011,03,23,15,50,10.70
2011,03,23,15,51,10.70
2011,03,23,15,52,10.70
2011,03,23,15,53,10.70
2011,03,23,15,54,10.70
2011,03,23,15,55,10.70
2011,03,23,15,56,10.70
2011,03,23,15,57,10.70
2011,03,23,15,58,10.70
2011,03,23,15,59,10.70
2011,03,23,16,00,10.80
2011,03,23,16,01,10.80
2011,03,23,16,02,10.80
2011,03,23,16,03,10.80
2011,03,23,16,04,10.80
2011,03,23,16,05,10.80
2011,03,23,16,06,10.80
2011,03,23,16,07,10.80
2011,03,23,16,08,10.80
2011,03,23,16,09,10.80
2011,03,23,16,10,10.90
2011,03,23,16,11,10.90
2011,03,23,16,12,10.90
2011,03,23,16,13,10.90
2011,03,23,16,14,11.00
2011,03,23,16,15,11.00
2011,03,23,16,16,11.00
2011,03,23,16,17,11.00
2011,03,23,16,18,11.00
2011,03,23,16,19,11.10
2011,03,23,16,20,11.10
2011,03,23,16,21,11.10
2011,03,23,16,22,11.10
2011,03,23,16,23,11.10
2011,03,23,16,24,11.10
2011,03,23,16,25,11.10
2011,03,23,16,26,11.10
2011,03,23,16,27,11.10
2011,03,23,16,28,11.10
2011,03,23,16,29,11.10
2011,03,23,16,30,11.10
2011,03,23,16,31,11.10
2011,03,23,16,32,11.10
2011,03,23,16,33,11.10
2011,03,23,16,34,11.10
2011,03,23,16,35,11.10
2011,03,23,16,36,11.10
2011,03,23,16,37,11.10
2011,03,23,16,38,11.10
2011,03,23,16,39,11.10
2011,03,23,16,40,11.10
2011,03,23,16,41,11.10
2011,03,23,16,42,11.10
2011,03,23,16,43,11.10
2011,03,23,16,44,11.10
2011,03,23,16,45,11.10
2011,03,23,16,46,11.10
2011,03,23,16,47,11.10
2011,03,23,16,48,11.10
2011,03,23,16,49,11.10
2011,03,23,16,50,11.10
2011,03,23,16,51,11.10
2011,03,23,16,52,11.10
2011,03,23,16,53,11.00
2011,03,23,16,54,11.00
2011,03,23,16,55,11.00
2011,03,23,16,56,11.00
2011,03,23,16,57,11.00
2011,03,23,16,58,11.00
2011,03,23,16,59,11.00
2011,03,23,17,00,11.00
2011,03,23,17,01,10.90
2011,03,23,17,02,10.90
2011,03,23,17,03,10.90
2011,03,23,17,04,10.90
2011,03,23,17,05,10.90
2011,03,23,17,06,10.90
2011,03,23,17,07,10.90
2011,03,23,17,08,10.90
2011,03,23,17,09,10.90
2011,03,23,17,10,10.90
2011,03,23,17,11,10.90
2011,03,23,17,12,10.90
2011,03,23,17,13,10.90
2011,03,23,17,14,10.90
2011,03,23,17,15,10.90
2011,03,23,17,16,10.90
2011,03,23,17,17,11.00
2011,03,23,17,18,11.00
2011,03,23,17,19,11.00
2011,03,23,17,20,11.00
2011,03,23,17,21,11.00
2011,03,23,17,22,11.00
2011,03,23,17,23,11.00
2011,03,23,17,24,11.00
2011,03,23,17,25,11.00
2011,03,23,17,26,11.00
2011,03,23,17,27,11.00
2011,03,23,17,28,11.00
2011,03,23,17,29,10.90
2011,03,23,17,30,10.90
2011,03,23,17,31,10.90
2011,03,23,17,32,10.90
2011,03,23,17,33,10.90
2011,03,23,17,34,10.90
2011,03,23,17,35,10.90
2011,03,23,17,36,10.90
2011,03,23,17,37,10.80
2011,03,23,17,38,10.80
2011,03,23,17,39,10.80
2011,03,23,17,40,10.80
2011,03,23,17,41,10.80
2011,03,23,17,42,10.80
2011,03,23,17,43,10.80
2011,03,23,17,44,10.80
2011,03,23,17,45,10.80
2011,03,23,17,46,10.80
2011,03,23,17,47,10.70
2011,03,23,17,48,10.70
2011,03,23,17,49,10.70
2011,03,23,17,50,10.70
2011,03,23,17,51,10.70
2011,03,23,17,52,10.70
2011,03,23,17,53,10.70
2011,03,23,17,54,10.70
2011,03,23,17,55,10.70
2011,03,23,17,56,10.70
2011,03,23,17,57,10.60
2011,03,23,17,58,10.60
2011,03,23,17,59,10.60
2011,03,23,18,00,10.60
2011,03,23,18,01,10.50
2011,03,23,18,02,10.50
2011,03,23,18,03,10.50
2011,03,23,18,04,10.40
2011,03,23,18,05,10.40
2011,03,23,18,06,10.40
2011,03,23,18,07,10.40
2011,03,23,18,08,10.40
2011,03,23,18,09,10.40
2011,03,23,18,10,10.30
2011,03,23,18,11,10.30
2011,03,23,18,12,10.30
2011,03,23,18,13,10.30
2011,03,23,18,14,10.30
2011,03,23,18,15,10.30
2011,03,23,18,16,10.20
2011,03,23,18,17,10.20
2011,03,23,18,18,10.20
2011,03,23,18,19,10.20
2011,03,23,18,20,10.10
2011,03,23,18,21,10.10
2011,03,23,18,22,10.10
2011,03,23,18,23,10.00
2011,03,23,18,24,10.00
2011,03,23,18,25,9.90
2011,03,23,18,26,9.90
2011,03,23,18,27,9.90
2011,03,23,18,28,9.90
2011,03,23,18,29,9.80
2011,03,23,18,30,9.80
2011,03,23,18,31,9.80
2011,03,23,18,32,9.70
2011,03,23,18,33,9.70
2011,03,23,18,34,9.60
2011,03,23,18,35,9.60
2011,03,23,18,36,9.60
2011,03,23,18,37,9.50
2011,03,23,18,38,9.50
2011,03,23,18,39,9.40
2011,03,23,18,40,9.40
2011,03,23,18,41,9.30
2011,03,23,18,42,9.30
2011,03,23,18,43,9.30
2011,03,23,18,44,9.30
2011,03,23,18,45,9.30
2011,03,23,18,46,9.30
2011,03,23,18,47,9.30
2011,03,23,18,48,9.30
2011,03,23,18,49,9.30
2011,03,23,18,50,9.20
2011,03,23,18,51,9.20
2011,03,23,18,52,9.20
2011,03,23,18,53,9.10
2011,03,23,18,54,9.10
2011,03,23,18,55,9.10
2011,03,23,18,56,9.00
2011,03,23,18,57,9.00
2011,03,23,18,58,8.90
2011,03,23,18,59,8.90
2011,03,23,19,00,8.90
2011,03,23,19,01,8.80
2011,03,23,19,02,8.80
2011,03,23,19,03,8.80
2011,03,23,19,04,8.80
2011,03,23,19,05,8.80
2011,03,23,19,06,8.80
2011,03,23,19,07,8.80
2011,03,23,19,08,8.70
2011,03,23,19,09,8.70
2011,03,23,19,10,8.70
2011,03,23,19,11,8.70
2011,03,23,19,12,8.60
2011,03,23,19,13,8.60
2011,03,23,19,14,8.60
2011,03,23,19,15,8.50
2011,03,23,19,16,8.50
2011,03,23,19,17,8.40
2011,03,23,19,18,8.40
2011,03,23,19,19,8.40
2011,03,23,19,20,8.30
2011,03,23,19,21,8.30
2011,03,23,19,22,8.30
2011,03,23,19,23,8.30
2011,03,23,19,24,8.20
2011,03,23,19,25,8.30
2011,03,23,19,26,8.30
2011,03,23,19,27,8.30
2011,03,23,19,28,8.30
2011,03,23,19,29,8.30
2011,03,23,19,30,8.30
2011,03,23,19,31,8.30
2011,03,23,19,32,8.30
2011,03,23,19,33,8.30
2011,03,23,19,34,8.30
2011,03,23,19,35,8.30
2011,03,23,19,36,8.30
2011,03,23,19,37,8.30
2011,03,23,19,38,8.20
2011,03,23,19,39,8.20
2011,03,23,19,40,8.20
2011,03,23,19,41,8.10
2011,03,23,19,42,8.10
2011,03,23,19,43,8.00
2011,03,23,19,44,8.00
2011,03,23,19,45,8.00
2011,03,23,19,46,7.90
2011,03,23,19,47,7.90
2011,03,23,19,48,7.90
2011,03,23,19,49,7.90
2011,03,23,19,50,7.80
2011,03,23,19,51,7.80
2011,03,23,19,52,7.80
2011,03,23,19,53,7.80
2011,03,23,19,54,7.80
2011,03,23,19,55,7.80
2011,03,23,19,56,7.80
2011,03,23,19,57,7.70
2011,03,23,19,58,7.70
2011,03,23,19,59,7.70
2011,03,23,20,00,7.70
2011,03,23,20,01,7.70
2011,03,23,20,02,7.70
2011,03,23,20,03,7.60
2011,03,23,20,04,7.60
2011,03,23,20,05,7.60
2011,03,23,20,06,7.60
2011,03,23,20,07,7.60
2011,03,23,20,08,7.50
2011,03,23,20,09,7.50
2011,03,23,20,10,7.50
2011,03,23,20,11,7.50
2011,03,23,20,12,7.50
2011,03,23,20,13,7.40
2011,03,23,20,14,7.40
2011,03,23,20,15,7.40
2011,03,23,20,16,7.40
2011,03,23,20,17,7.40
2011,03,23,20,18,7.40
2011,03,23,20,19,7.40
2011,03,23,20,20,7.40
2011,03,23,20,21,7.40
2011,03,23,20,22,7.40
2011,03,23,20,23,7.40
2011,03,23,20,24,7.40
2011,03,23,20,25,7.50
2011,03,23,20,26,7.50
2011,03,23,20,27,7.50
2011,03,23,20,28,7.50
2011,03,23,20,29,7.60
2011,03,23,20,30,7.60
2011,03,23,20,31,7.50
2011,03,23,20,32,7.50
2011,03,23,20,33,7.50
2011,03,23,20,34,7.60
2011,03,23,20,35,7.60
2011,03,23,20,36,7.60
2011,03,23,20,37,7.60
2011,03,23,20,38,7.60
2011,03,23,20,39,7.70
2011,03,23,20,40,7.70
2011,03,23,20,41,7.70
2011,03,23,20,42,7.70
2011,03,23,20,43,7.70
2011,03,23,20,44,7.70
2011,03,23,20,45,7.70
2011,03,23,20,46,7.70
2011,03,23,20,47,7.70
2011,03,23,20,48,7.70
2011,03,23,20,49,7.70
2011,03,23,20,50,7.70
2011,03,23,20,51,7.60
2011,03,23,20,52,7.60
2011,03,23,20,53,7.60
2011,03,23,20,54,7.60
2011,03,23,20,55,7.60
2011,03,23,20,56,7.60
2011,03,23,20,57,7.60
2011,03,23,20,58,7.50
2011,03,23,20,59,7.50
2011,03,23,21,00,7.50
2011,03,23,21,01,7.40
2011,03,23,21,02,7.40
2011,03,23,21,03,7.40
2011,03,23,21,04,7.30
2011,03,23,21,05,7.30
2011,03,23,21,06,7.20
2011,03,23,21,07,7.20
2011,03,23,21,08,7.20
2011,03,23,21,09,7.20
2011,03,23,21,10,7.20
2011,03,23,21,11,7.10
2011,03,23,21,12,7.10
2011,03,23,21,13,7.10
2011,03,23,21,14,7.10
2011,03,23,21,15,7.10
2011,03,23,21,16,7.00
2011,03,23,21,17,7.00
2011,03,23,21,18,7.00
2011,03,23,21,19,6.90
2011,03,23,21,20,6.90
2011,03,23,21,21,6.90
2011,03,23,21,22,6.90
2011,03,23,21,23,6.80
2011,03,23,21,24,6.80
2011,03,23,21,25,6.80
2011,03,23,21,26,6.80
2011,03,23,21,27,6.80
2011,03,23,21,28,6.80
2011,03,23,21,29,6.80
2011,03,23,21,30,6.80
2011,03,23,21,31,6.80
2011,03,23,21,32,6.80
2011,03,23,21,33,6.70
2011,03,23,21,34,6.70
2011,03,23,21,35,6.70
2011,03,23,21,36,6.70
2011,03,23,21,37,6.80
2011,03,23,21,38,6.80
2011,03,23,21,39,6.80
2011,03,23,21,40,6.80
2011,03,23,21,41,6.80
2011,03,23,21,42,6.80
2011,03,23,21,43,6.80
2011,03,23,21,44,6.70
2011,03,23,21,45,6.70
2011,03,23,21,46,6.70
2011,03,23,21,47,6.70
2011,03,23,21,48,6.70
2011,03,23,21,49,6.70
2011,03,23,21,50,6.70
2011,03,23,21,51,6.70
2011,03,23,21,52,6.70
2011,03,23,21,53,6.70
2011,03,23,21,54,6.70
2011,03,23,21,55,6.70
2011,03,23,21,56,6.70
2011,03,23,21,57,6.70
2011,03,23,21,58,6.70
2011,03,23,21,59,6.70
2011,03,23,22,00,6.60
2011,03,23,22,01,6.70
2011,03,23,22,02,6.70
2011,03,23,22,03,6.70
2011,03,23,22,04,6.70
2011,03,23,22,05,6.70
2011,03,23,22,06,6.80
2011,03,23,22,07,6.80
2011,03,23,22,08,6.80
2011,03,23,22,09,6.80
2011,03,23,22,10,6.80
2011,03,23,22,11,6.80
2011,03,23,22,12,6.90
2011,03,23,22,13,6.90
2011,03,23,22,14,6.90
2011,03,23,22,15,6.90
2011,03,23,22,16,6.90
2011,03,23,22,17,6.90
2011,03,23,22,18,6.90
2011,03,23,22,19,6.90
2011,03,23,22,20,6.90
2011,03,23,22,21,6.90
2011,03,23,22,22,6.90
2011,03,23,22,23,6.90
2011,03,23,22,24,6.90
2011,03,23,22,25,6.90
2011,03,23,22,26,6.90
2011,03,23,22,27,6.90
2011,03,23,22,28,6.90
2011,03,23,22,29,6.90
2011,03,23,22,30,6.90
2011,03,23,22,31,6.90
2011,03,23,22,32,6.90
2011,03,23,22,33,6.90
2011,03,23,22,34,6.90
2011,03,23,22,35,6.90
2011,03,23,22,36,7.00
2011,03,23,22,37,7.00
2011,03,23,22,38,7.00
2011,03,23,22,39,7.00
2011,03,23,22,40,7.10
2011,03,23,22,41,7.10
2011,03,23,22,42,7.10
2011,03,23,22,43,7.10
2011,03,23,22,44,7.10
2011,03,23,22,45,7.10
2011,03,23,22,46,7.10
2011,03,23,22,47,7.10
2011,03,23,22,48,7.10
2011,03,23,22,49,7.10
2011,03,23,22,50,7.10
2011,03,23,22,51,7.10
2011,03,23,22,52,7.10
2011,03,23,22,53,7.10
2011,03,23,22,54,7.10
2011,03,23,22,55,7.00
2011,03,23,22,56,7.00
2011,03,23,22,57,7.00
2011,03,23,22,58,7.00
2011,03,23,22,59,6.90
2011,03,23,23,00,6.90
2011,03,23,23,01,6.90
2011,03,23,23,02,6.90
2011,03,23,23,03,7.00
2011,03,23,23,04,7.00
2011,03,23,23,05,7.00
2011,03,23,23,06,7.10
2011,03,23,23,07,7.00
2011,03,23,23,08,7.00
2011,03,23,23,09,7.00
2011,03,23,23,10,7.00
2011,03,23,23,11,7.00
2011,03,23,23,12,7.00
2011,03,23,23,13,7.00
2011,03,23,23,14,7.00
2011,03,23,23,15,7.00
2011,03,23,23,16,7.00
2011,03,23,23,17,7.00
2011,03,23,23,18,7.00
2011,03,23,23,19,7.00
2011,03,23,23,20,7.00
2011,03,23,23,21,7.00
2011,03,23,23,22,7.00
2011,03,23,23,23,7.10
2011,03,23,23,24,7.10
2011,03,23,23,25,7.20
2011,03,23,23,26,7.20
2011,03,23,23,27,7.20
2011,03,23,23,28,7.20
2011,03,23,23,29,7.20
2011,03,23,23,30,7.20
2011,03,23,23,31,7.30
2011,03,23,23,32,7.40
2011,03,23,23,33,7.40
2011,03,23,23,34,7.40
2011,03,23,23,35,7.50
2011,03,23,23,36,7.50
2011,03,23,23,37,7.50
2011,03,23,23,38,7.50
2011,03,23,23,39,7.50
2011,03,23,23,40,7.60
2011,03,23,23,41,7.50
2011,03,23,23,42,7.50
2011,03,23,23,43,7.50
2011,03,23,23,44,7.50
2011,03,23,23,45,7.50
2011,03,23,23,46,7.60
2011,03,23,23,47,7.60
2011,03,23,23,48,7.60
2011,03,23,23,49,7.60
2011,03,23,23,50,7.60
2011,03,23,23,51,7.60
2011,03,23,23,52,7.60
2011,03,23,23,53,7.60
2011,03,23,23,54,7.60
2011,03,23,23,55,7.60
2011,03,23,23,56,7.60
2011,03,23,23,57,7.60
2011,03,23,23,58,7.60
2011,03,23,23,59,7.60
